W4TJP Weather Reports


time (UTC)temp
C
wind
direction
speed
KPH
gust
KPH
rain 1hr
cm
rain 24hr
cm
rain mn
cm
humidity
%
barometer
mb
20260509032343 9 165 0.0 0.0 0.00 0.00 0.00 93 1012.5
20260509031842 9 165 0.0 0.0 0.00 0.00 0.00 93 1012.3
20260509031338 9 165 0.0 0.0 0.00 0.00 0.00 92 1012.1
20260509030836 9 165 0.0 0.0 0.00 0.00 0.00 92 1012.5
20260509030334 9 165 0.0 0.0 0.00 0.00 0.00 92 1012.2
20260509025831 10 164 0.0 0.0 0.00 0.00 0.00 92 1012.5
20260509025326 10 165 0.0 0.0 0.00 0.00 0.00 91 1012.5
20260509024821 10 165 0.0 0.0 0.00 0.00 0.00 91 1012.4
20260509024318 10 165 0.0 0.0 0.00 0.00 0.00 90 1012.5
20260509023815 10 168 0.0 0.0 0.00 0.00 0.00 90 1012.5
20260509023313 10 169 0.0 0.0 0.00 0.00 0.00 88 1012.3
20260509022809 10 169 0.0 0.0 0.00 0.00 0.00 88 1012.3
20260509022307 10 169 0.0 0.0 0.00 0.00 0.00 89 1012.3
20260509021803 10 169 0.0 0.0 0.00 0.00 0.00 89 1012.5
20260509021300 10 169 0.0 0.0 0.00 0.00 0.00 89 1012.3
20260509020758 10 169 0.0 0.0 0.00 0.00 0.00 89 1012.3
20260509020255 10 169 0.0 0.0 0.00 0.00 0.00 89 1012.1
20260509015753 10 169 0.0 0.0 0.00 0.00 0.00 89 1012.3
20260509015251 10 169 0.0 0.0 0.00 0.00 0.00 89 1012.3
20260509014747 10 169 0.0 0.0 0.00 0.00 0.00 87 1012.2
20260509014244 11 169 0.0 0.0 0.00 0.00 0.00 86 1012.0
20260509013741 11 169 0.0 0.0 0.00 0.00 0.00 85 1012.2
20260509013237 11 169 0.0 0.0 0.00 0.00 0.00 84 1012.2
20260509012733 11 169 0.0 0.0 0.00 0.00 0.00 82 1012.0
20260509012230 11 169 0.0 0.0 0.00 0.00 0.00 81 1012.0
20260509011727 11 169 0.0 0.0 0.00 0.00 0.00 80 1012.2
20260509011225 11 169 0.0 0.0 0.00 0.00 0.00 79 1012.1
20260509010723 12 169 0.0 0.0 0.00 0.00 0.00 78 1012.3
20260509010219 12 169 0.0 0.0 0.00 0.00 0.00 75 1012.2
20260509005716 12 169 0.0 0.0 0.00 0.00 0.00 74 1012.2
20260509005214 12 169 0.0 0.0 0.00 0.00 0.00 73 1012.4
20260509004708 13 169 0.0 0.0 0.00 0.00 0.00 71 1012.0
20260509004206 13 169 0.0 0.0 0.00 0.00 0.00 70 1012.0
20260509003704 13 169 0.0 0.0 0.00 0.00 0.00 69 1012.0
20260509003201 13 169 0.0 0.0 0.00 0.00 0.00 68 1012.3
20260509002658 14 169 0.0 0.0 0.00 0.00 0.00 69 1011.8
20260509002155 14 169 0.0 0.0 0.00 0.00 0.00 64 1012.1
20260509001653 14 169 0.0 0.0 0.00 0.00 0.00 65 1012.1
20260509001148 15 169 0.0 0.0 0.00 0.00 0.00 61 1012.0
20260509000647 15 169 0.0 0.0 0.00 0.00 0.00 65 1012.1
20260509000144 15 169 0.0 0.0 0.00 0.00 0.00 64 1012.1
20260508235641 16 169 0.0 0.0 0.00 0.00 0.00 64 1011.9
20260508235137 16 169 0.0 0.0 0.00 0.00 0.00 59 1012.1
20260508234635 16 169 0.0 0.0 0.00 0.00 0.00 55 1012.1
20260508234131 16 169 0.0 0.0 0.00 0.00 0.00 53 1012.0
20260508233631 16 169 0.0 0.0 0.00 0.00 0.00 52 1012.0
20260508233128 17 169 0.0 0.0 0.00 0.00 0.00 51 1012.3
20260508232625 17 169 0.0 0.0 0.00 0.00 0.00 51 1012.1
20260508232121 17 169 0.0 0.0 0.00 0.00 0.00 49 1012.2
20260508231619 17 169 0.0 1.6 0.00 0.00 0.00 47 1012.1
20260508231116 17 169 0.0 0.0 0.00 0.00 0.00 46 1012.0
20260508230612 17 169 0.0 0.0 0.00 0.00 0.00 47 1012.2
20260508230109 18 169 0.0 0.0 0.00 0.00 0.00 43 1012.2
20260508225607 18 154 0.0 0.0 0.00 0.00 0.00 45 1012.2
20260508225103 18 143 0.0 0.0 0.00 0.00 0.00 39 1012.3
20260508224601 18 162 0.0 0.0 0.00 0.00 0.00 41 1012.2
20260508224058 19 143 0.0 0.0 0.00 0.00 0.00 39 1012.3
20260508223556 19 147 0.0 0.0 0.00 0.00 0.00 41 1012.4
20260508223052 20 168 1.6 1.6 0.00 0.00 0.00 39 1012.4
20260508222550 20 157 0.0 0.0 0.00 0.00 0.00 38 1012.5
20260508222047 20 126 0.0 1.6 0.00 0.00 0.00 39 1012.7
20260508221543 20 169 0.0 0.0 0.00 0.00 0.00 41 1012.5
20260508221039 20 169 0.0 0.0 0.00 0.00 0.00 43 1012.6
20260508220536 20 156 0.0 0.0 0.00 0.00 0.00 42 1012.6
20260508220032 20 169 0.0 1.6 0.00 0.00 0.00 35 1012.6
20260508215529 20 169 1.6 3.2 0.00 0.00 0.00 35 1012.6
20260508215026 20 123 0.0 1.6 0.00 0.00 0.00 37 1012.6
20260508214524 21 168 1.6 1.6 0.00 0.00 0.00 37 1012.5
20260508214020 22 160 0.0 0.0 0.00 0.00 0.00 34 1012.3
20260508213517 22 170 1.6 3.2 0.00 0.00 0.00 33 1012.4
20260508213013 22 171 0.0 0.0 0.00 0.00 0.00 32 1012.4
20260508212509 22 147 3.2 8.0 0.00 0.00 0.00 33 1012.4
20260508212006 23 142 0.0 1.6 0.00 0.00 0.00 34 1012.5
20260508211501 23 171 0.0 0.0 0.00 0.00 0.00 33 1012.3
20260508210958 23 139 0.0 0.0 0.00 0.00 0.00 33 1012.5
20260508210455 23 172 0.0 1.6 0.00 0.00 0.00 33 1012.3
20260508205951 23 171 0.0 0.0 0.00 0.00 0.00 36 1012.2
20260508205449 22 171 0.0 0.0 0.00 0.00 0.00 31 1012.2
20260508204944 22 96 1.6 1.6 0.00 0.00 0.00 31 1012.5
20260508204442 22 144 0.0 1.6 0.00 0.00 0.00 33 1012.4
20260508203937 23 113 1.6 3.2 0.00 0.00 0.00 32 1012.5
20260508203434 23 171 1.6 3.2 0.00 0.00 0.00 31 1012.6
20260508202929 23 140 0.0 0.0 0.00 0.00 0.00 34 1012.7
20260508202427 23 140 0.0 1.6 0.00 0.00 0.00 34 1012.7
20260508201924 23 139 1.6 3.2 0.00 0.00 0.00 32 1012.8
20260508201421 23 172 0.0 0.0 0.00 0.00 0.00 35 1012.5
20260508200917 23 171 0.0 0.0 0.00 0.00 0.00 31 1012.9
20260508200414 23 171 1.6 1.6 0.00 0.00 0.00 36 1012.8
20260508195910 23 171 0.0 0.0 0.00 0.00 0.00 33 1012.6
20260508195407 23 135 4.8 4.8 0.00 0.00 0.00 33 1012.9
20260508194903 23 170 1.6 1.6 0.00 0.00 0.00 33 1012.8
20260508194400 22 172 1.6 3.2 0.00 0.00 0.00 33 1013.4
20260508193857 22 172 1.6 1.6 0.00 0.00 0.00 33 1012.9
20260508193354 22 163 1.6 1.6 0.00 0.00 0.00 33 1013.1
20260508192850 23 129 1.6 3.2 0.00 0.00 0.00 32 1013.3
20260508192347 22 172 0.0 1.6 0.00 0.00 0.00 30 1013.3
20260508191844 22 172 0.0 0.0 0.00 0.00 0.00 34 1013.6
20260508191342 22 107 4.8 8.0 0.00 0.00 0.00 32 1013.8
20260508190838 21 116 1.6 1.6 0.00 0.00 0.00 32 1014.0
20260508190335 22 171 6.4 8.0 0.00 0.00 0.00 33 1014.1
20260508185831 22 162 0.0 0.0 0.00 0.00 0.00 31 1014.2
20260508185329 22 172 0.0 1.6 0.00 0.00 0.00 35 1014.3
20260508184826 22 172 0.0 1.6 0.00 0.00 0.00 32 1014.2
20260508184323 23 121 0.0 0.0 0.00 0.00 0.00 35 1014.4
20260508183820 22 171 0.0 0.0 0.00 0.00 0.00 31 1014.2
20260508183317 22 172 1.6 3.2 0.00 0.00 0.00 30 1014.4
20260508182812 22 171 0.0 0.0 0.00 0.00 0.00 30 1014.2
20260508182310 21 171 0.0 0.0 0.00 0.00 0.00 32 1014.6
20260508181805 21 172 1.6 1.6 0.00 0.00 0.00 37 1014.8
20260508181302 21 146 0.0 1.6 0.00 0.00 0.00 36 1014.9
20260508180759 21 142 1.6 1.6 0.00 0.00 0.00 36 1015.1
20260508180256 21 119 0.0 1.6 0.00 0.00 0.00 34 1014.9
20260508175752 21 172 0.0 1.6 0.00 0.00 0.00 36 1015.1
20260508175248 21 171 1.6 3.2 0.00 0.00 0.00 37 1015.2
20260508174747 21 172 0.0 0.0 0.00 0.00 0.00 36 1014.6
20260508174244 21 171 0.0 0.0 0.00 0.00 0.00 34 1014.9
20260508173740 20 170 1.6 1.6 0.00 0.00 0.00 31 1015.2
20260508173236 21 171 1.6 1.6 0.00 0.00 0.00 36 1015.1
20260508172733 20 171 1.6 1.6 0.00 0.00 0.00 45 1015.3
20260508172230 20 117 1.6 3.2 0.00 0.00 0.00 33 1015.4
20260508171727 20 170 4.8 8.0 0.00 0.00 0.00 35 1015.6
20260508171223 20 113 1.6 1.6 0.00 0.00 0.00 36 1015.8
20260508170720 20 101 4.8 4.8 0.00 0.00 0.00 34 1015.6
20260508170218 20 171 3.2 3.2 0.00 0.00 0.00 35 1015.8
20260508165714 20 171 1.6 1.6 0.00 0.00 0.00 41 1015.9
20260508165212 20 171 0.0 1.6 0.00 0.00 0.00 39 1015.9
20260508164708 19 152 4.8 4.8 0.00 0.00 0.00 33 1016.2
20260508164205 19 170 0.0 1.6 0.00 0.00 0.00 34 1016.3
20260508163703 19 116 3.2 4.8 0.00 0.00 0.00 36 1016.3
20260508163200 19 113 0.0 0.0 0.00 0.00 0.00 36 1016.6
20260508162655 18 116 1.6 1.6 0.00 0.00 0.00 36 1016.7
20260508162153 18 170 1.6 3.2 0.00 0.00 0.00 38 1016.5
20260508161649 18 167 0.0 0.0 0.00 0.00 0.00 41 1016.6
20260508161147 18 164 0.0 1.6 0.00 0.00 0.00 37 1016.6
20260508160645 18 130 3.2 3.2 0.00 0.00 0.00 36 1016.8
20260508160142 18 117 3.2 4.8 0.00 0.00 0.00 37 1016.8
20260508155639 18 170 1.6 1.6 0.00 0.00 0.00 44 1016.8
20260508155136 18 170 0.0 1.6 0.00 0.00 0.00 40 1016.9
20260508154633 18 156 0.0 0.0 0.00 0.00 0.00 41 1016.9
20260508154130 18 109 3.2 3.2 0.00 0.00 0.00 37 1017.0
20260508153627 18 191 0.0 0.0 0.00 0.00 0.00 43 1017.0
20260508153124 18 186 0.0 0.0 0.00 0.00 0.00 43 1017.4
20260508152620 17 186 0.0 0.0 0.00 0.00 0.00 42 1017.3
20260508152116 17 205 0.0 0.0 0.00 0.00 0.00 44 1017.0
20260508151613 17 228 3.2 4.8 0.00 0.00 0.00 42 1017.4
20260508151110 17 204 0.0 0.0 0.00 0.00 0.00 38 1017.5
20260508150607 17 237 1.6 1.6 0.00 0.00 0.00 42 1017.5
20260508145559 16 214 0.0 0.0 0.00 0.00 0.00 43 1017.5
20260508145056 16 185 0.0 0.0 0.00 0.00 0.00 40 1017.4
20260508144554 16 185 1.6 1.6 0.00 0.00 0.00 47 1017.4
20260508144051 16 200 1.6 1.6 0.00 0.00 0.00 42 1017.5
20260508143548 16 185 3.2 3.2 0.00 0.00 0.00 45 1017.5
20260508143045 16 237 1.6 3.2 0.00 0.00 0.00 45 1017.3
20260508142542 17 184 3.2 3.2 0.00 0.00 0.00 43 1017.4
20260508142038 16 185 0.0 0.0 0.00 0.00 0.00 48 1017.7
20260508141535 16 222 1.6 3.2 0.00 0.00 0.00 46 1017.5
20260508141032 17 208 0.0 1.6 0.00 0.00 0.00 46 1017.6
20260508140530 16 185 0.0 0.0 0.00 0.00 0.00 46 1017.4
20260508140026 16 185 0.0 0.0 0.00 0.00 0.00 46 1017.5
20260508135521 16 184 0.0 1.6 0.00 0.00 0.00 52 1017.8
20260508135018 16 217 0.0 1.6 0.00 0.00 0.00 53 1017.5
20260508134515 16 185 0.0 0.0 0.00 0.00 0.00 59 1017.6
20260508134012 16 184 0.0 0.0 0.00 0.00 0.00 65 1018.1
20260508133509 16 184 1.6 1.6 0.00 0.00 0.00 60 1017.8
20260508133006 15 185 0.0 0.0 0.00 0.00 0.00 64 1017.8
20260508132504 15 185 1.6 1.6 0.00 0.00 0.00 59 1017.6
20260508132000 16 184 0.0 0.0 0.00 0.00 0.00 67 1017.7
20260508131455 15 184 0.0 0.0 0.00 0.00 0.00 72 1017.6
20260508130952 13 184 0.0 0.0 0.00 0.00 0.00 72 1017.7
20260508130450 13 185 0.0 0.0 0.00 0.00 0.00 75 1017.5
20260508125945 12 185 0.0 0.0 0.00 0.00 0.00 81 1017.7
20260508125441 12 185 0.0 0.0 0.00 0.00 0.00 77 1017.4
20260508124939 11 184 0.0 0.0 0.00 0.00 0.00 83 1017.5
20260508124437 10 184 0.0 0.0 0.00 0.00 0.00 87 1017.2
20260508123934 8 184 0.0 0.0 0.00 0.00 0.00 94 1017.2
20260508123433 6 186 0.0 0.0 0.00 0.00 0.00 99 1017.4
20260508122929 6 186 0.0 0.0 0.00 0.00 0.00 99 1017.4
20260508122426 6 185 0.0 0.0 0.00 0.00 0.00 99 1017.4
20260508121923 5 185 0.0 0.0 0.00 0.00 0.00 99 1017.4
20260508121421 5 186 0.0 0.0 0.00 0.00 0.00 99 1017.2
20260508120918 4 186 0.0 0.0 0.00 0.00 0.00 99 1017.6
20260508120416 3 189 0.0 0.0 0.00 0.00 0.00 99 1017.3
20260508115914 3 189 0.0 0.0 0.00 0.00 0.00 99 1017.3
20260508115412 3 187 0.0 0.0 0.00 0.00 0.00 99 1017.3
20260508114907 2 203 0.0 0.0 0.00 0.00 0.00 99 1017.0
20260508114404 2 203 0.0 0.0 0.00 0.00 0.00 99 1016.9
20260508113901 2 203 0.0 0.0 0.00 0.00 0.00 99 1016.9
20260508113359 1 203 0.0 0.0 0.00 0.00 0.00 99 1017.0
20260508112856 1 203 0.0 0.0 0.00 0.00 0.00 99 1016.8
20260508112353 1 203 0.0 0.0 0.00 0.00 0.00 99 1016.7
20260508111849 1 203 0.0 0.0 0.00 0.00 0.00 99 1016.7
20260508111346 1 203 0.0 0.0 0.00 0.00 0.00 99 1016.6
20260508110843 1 203 0.0 0.0 0.00 0.00 0.00 99 1016.5
20260508110341 1 203 0.0 0.0 0.00 0.00 0.00 99 1016.5
20260508105841 1 203 0.0 0.0 0.00 0.00 0.00 99 1016.5
20260508105337 0 203 0.0 0.0 0.00 0.00 0.00 99 1016.4
20260508104834 0 203 0.0 0.0 0.00 0.00 0.00 99 1016.2
20260508104331 0 203 0.0 0.0 0.00 0.00 0.00 99 1016.4
20260508103829 1 203 0.0 0.0 0.00 0.00 0.00 99 1016.3
20260508103325 1 203 0.0 0.0 0.00 0.00 0.00 99 1016.5
20260508102823 1 203 0.0 0.0 0.00 0.00 0.00 99 1016.0
20260508102321 1 203 0.0 0.0 0.00 0.00 0.00 99 1016.2
20260508101818 1 203 0.0 0.0 0.00 0.00 0.00 99 1016.0
20260508101315 1 203 0.0 0.0 0.00 0.00 0.00 99 1016.2
20260508100813 1 203 0.0 0.0 0.00 0.00 0.00 99 1015.7
20260508100311 1 203 0.0 0.0 0.00 0.00 0.00 99 1016.1
20260508095806 1 203 0.0 0.0 0.00 0.00 0.00 99 1015.8
20260508095306 1 203 0.0 0.0 0.00 0.00 0.00 99 1015.9
20260508094801 1 203 0.0 0.0 0.00 0.00 0.00 99 1016.0
20260508094258 1 203 0.0 0.0 0.00 0.00 0.00 99 1016.1
20260508093755 1 203 0.0 0.0 0.00 0.00 0.00 99 1015.8
20260508093253 1 203 0.0 0.0 0.00 0.00 0.00 99 1015.9
20260508092749 1 203 0.0 0.0 0.00 0.00 0.00 99 1015.9
20260508092248 1 203 0.0 0.0 0.00 0.00 0.00 99 1016.0
20260508091745 1 203 0.0 0.0 0.00 0.00 0.00 99 1015.9
20260508091242 1 203 0.0 0.0 0.00 0.00 0.00 99 1015.7
20260508090740 1 203 0.0 0.0 0.00 0.00 0.00 99 1016.0
20260508090238 1 203 0.0 0.0 0.00 0.00 0.00 99 1015.8
20260508085733 1 203 0.0 0.0 0.00 0.00 0.00 99 1015.9
20260508085230 1 203 0.0 0.0 0.00 0.00 0.00 99 1015.7
20260508084726 1 203 0.0 0.0 0.00 0.00 0.00 99 1015.8
20260508084224 1 203 0.0 0.0 0.00 0.00 0.00 99 1015.8
20260508083721 1 205 0.0 0.0 0.00 0.00 0.00 99 1015.8
20260508083219 1 205 0.0 0.0 0.00 0.00 0.00 99 1015.6
20260508082713 1 205 0.0 0.0 0.00 0.00 0.00 99 1016.0
20260508082212 1 205 0.0 0.0 0.00 0.00 0.00 99 1015.9
20260508081709 2 205 0.0 0.0 0.00 0.00 0.00 99 1015.8
20260508081205 2 205 0.0 0.0 0.00 0.00 0.00 99 1015.7
20260508080702 2 205 0.0 0.0 0.00 0.00 0.00 99 1015.7
20260508080200 2 205 0.0 0.0 0.00 0.00 0.00 99 1015.8
20260508075657 2 205 0.0 0.0 0.00 0.00 0.00 99 1015.8
20260508075154 2 205 0.0 0.0 0.00 0.00 0.00 99 1015.7
20260508074651 2 205 0.0 0.0 0.00 0.00 0.00 99 1015.7
20260508074148 2 205 0.0 0.0 0.00 0.00 0.00 99 1015.9
20260508073645 2 205 0.0 0.0 0.00 0.00 0.00 99 1015.9
20260508073143 2 205 0.0 0.0 0.00 0.00 0.00 99 1015.9
20260508072638 2 205 0.0 0.0 0.00 0.00 0.00 99 1015.9
20260508072136 2 205 0.0 0.0 0.00 0.00 0.00 99 1015.9
20260508071633 2 205 0.0 0.0 0.00 0.00 0.00 99 1015.9
20260508071132 2 205 0.0 0.0 0.00 0.00 0.00 99 1015.7
20260508070629 2 205 0.0 0.0 0.00 0.00 0.00 99 1016.1
20260508070127 2 205 0.0 0.0 0.00 0.00 0.00 99 1015.8
20260508065624 2 205 0.0 0.0 0.00 0.00 0.00 99 1015.8
20260508065122 2 205 0.0 0.0 0.00 0.00 0.00 99 1015.8
20260508064619 2 205 0.0 0.0 0.00 0.00 0.00 99 1016.1
20260508064117 2 205 0.0 0.0 0.00 0.00 0.00 99 1016.1
20260508063614 2 205 0.0 0.0 0.00 0.00 0.00 99 1016.2
20260508063113 3 206 0.0 0.0 0.00 0.00 0.00 99 1016.3
20260508062610 3 206 0.0 0.0 0.00 0.00 0.00 99 1016.2
20260508062106 3 206 0.0 0.0 0.00 0.00 0.00 99 1016.1
20260508061604 3 206 0.0 0.0 0.00 0.00 0.00 99 1015.9
20260508061101 3 206 0.0 0.0 0.00 0.00 0.00 99 1016.3
20260508060557 3 206 0.0 0.0 0.00 0.00 0.00 99 1016.0
20260508060055 3 206 0.0 0.0 0.00 0.00 0.00 99 1016.4
20260508055550 3 206 0.0 0.0 0.00 0.00 0.00 99 1016.2
20260508055047 3 206 0.0 0.0 0.00 0.00 0.00 99 1016.3
20260508054544 3 206 0.0 0.0 0.00 0.00 0.00 99 1016.5
20260508054041 3 206 0.0 0.0 0.00 0.00 0.00 99 1016.2
20260508053538 3 206 0.0 0.0 0.00 0.00 0.00 99 1016.2
20260508053036 3 206 0.0 0.0 0.00 0.00 0.00 99 1016.2
20260508052533 3 206 0.0 0.0 0.00 0.00 0.00 99 1016.2
20260508052030 3 206 0.0 0.0 0.00 0.00 0.00 99 1016.0
20260508051526 3 206 0.0 0.0 0.00 0.00 0.00 99 1016.2
20260508051021 3 206 0.0 0.0 0.00 0.00 0.00 99 1016.2
20260508050518 3 206 0.0 0.0 0.00 0.00 0.00 99 1016.2
20260508050015 3 206 0.0 0.0 0.00 0.03 0.03 99 1016.1
20260508045512 3 206 0.0 0.0 0.00 0.03 0.03 99 1016.1
20260508045009 3 206 0.0 0.0 0.00 0.03 0.03 99 1016.2
20260508044506 3 206 0.0 0.0 0.00 0.03 0.03 99 1016.3
20260508044002 3 206 0.0 0.0 0.00 0.03 0.03 99 1016.3
20260508043459 3 206 0.0 0.0 0.00 0.03 0.03 99 1016.4
20260508042955 4 206 0.0 0.0 0.00 0.03 0.03 99 1016.4
20260508042453 4 206 0.0 0.0 0.00 0.03 0.03 99 1016.4
20260508041950 4 206 0.0 0.0 0.00 0.03 0.03 99 1016.6
20260508041446 4 206 0.0 0.0 0.00 0.03 0.03 99 1016.2
20260508040943 4 206 0.0 0.0 0.00 0.03 0.03 99 1016.3
20260508040440 4 206 0.0 0.0 0.00 0.03 0.03 99 1016.2
20260508035938 4 206 0.0 0.0 0.00 0.03 0.03 99 1016.0
20260508035435 5 206 0.0 0.0 0.00 0.03 0.03 99 1015.9
20260508034932 5 206 0.0 0.0 0.00 0.03 0.03 98 1016.0
20260508034429 5 206 0.0 0.0 0.00 0.03 0.03 98 1016.0
20260508033925 5 206 0.0 0.0 0.00 0.03 0.03 98 1015.8
20260508033424 5 206 0.0 0.0 0.00 0.03 0.03 98 1016.0
20260508032921 5 206 0.0 0.0 0.00 0.03 0.03 98 1016.2